Hourly Weather Bolshie Klyari

Today, 1 August, Sunday

Time Temperature Precipitation Wind Pressure Humidity
00:00 +20°C° 0 mm 4 mps 746 mmHg 74%
01:00 +20°C° 0 mm 4 mps 747 mmHg 75%
02:00 +19°C° 0 mm 4 mps 747 mmHg 75%
03:00 +19°C° 0 mm 4 mps 747 mmHg 76%
04:00 +20°C° 0 mm 4 mps 747 mmHg 73%
05:00 +20°C° 0 mm 3 mps 748 mmHg 71%
06:00 +21°C° 0 mm 3 mps 748 mmHg 68%
07:00 +24°C° 0 mm 3 mps 748 mmHg 62%
08:00 +25°C° 0 mm 4 mps 748 mmHg 56%
09:00 +27°C° 0 mm 4 mps 749 mmHg 49%
10:00 +27°C° 0 mm 4 mps 749 mmHg 46%
11:00 +28°C° 0 mm 4 mps 749 mmHg 43%
12:00 +29°C° 0 mm 4 mps 749 mmHg 39%
13:00 +29°C° 0 mm 4 mps 749 mmHg 38%
14:00 +29°C° 0 mm 4 mps 749 mmHg 38%
15:00 +29°C° 0 mm 5 mps 749 mmHg 37%
16:00 +29°C° 0 mm 4 mps 749 mmHg 41%
17:00 +28°C° 0 mm 3 mps 749 mmHg 45%
18:00 +27°C° 0 mm 3 mps 750 mmHg 49%
19:00 +25°C° 0 mm 2 mps 750 mmHg 53%
20:00 +24°C° 0 mm 1 mps 750 mmHg 58%
21:00 +22°C° 0 mm 1 mps 750 mmHg 63%
22:00 +21°C° 0 mm 1 mps 750 mmHg 64%
23:00 +21°C° 0 mm 1 mps 750 mmHg 64%

Tomorrow, 2 August, Monday

Time Temperature Precipitation Wind Pressure Humidity
00:00 +21°C° 0 mm 1 mps 750 mmHg 65%
01:00 +21°C° 0 mm 1 mps 750 mmHg 65%
02:00 +20°C° 0 mm 1 mps 750 mmHg 66%
03:00 +20°C° 0 mm 1 mps 750 mmHg 66%
04:00 +20°C° 0 mm 2 mps 751 mmHg 64%
05:00 +20°C° 0 mm 2 mps 751 mmHg 63%
06:00 +21°C° 0 mm 2 mps 751 mmHg 62%
07:00 +24°C° 0 mm 2 mps 751 mmHg 57%
08:00 +26°C° 0 mm 2 mps 751 mmHg 53%
09:00 +28°C° 0 mm 2 mps 751 mmHg 48%
10:00 +29°C° 0 mm 3 mps 751 mmHg 44%
11:00 +31°C° 0 mm 3 mps 751 mmHg 40%
12:00 +33°C° 0 mm 3 mps 750 mmHg 36%
13:00 +34°C° 0 mm 3 mps 750 mmHg 35%
14:00 +34°C° 0 mm 4 mps 750 mmHg 34%
15:00 +35°C° 0 mm 4 mps 750 mmHg 33%
16:00 +33°C° 0 mm 3 mps 749 mmHg 37%
17:00 +31°C° 0 mm 3 mps 749 mmHg 41%
18:00 +30°C° 0 mm 3 mps 749 mmHg 45%
19:00 +29°C° 0 mm 3 mps 749 mmHg 45%
20:00 +27°C° 0 mm 3 mps 749 mmHg 45%
21:00 +26°C° 0 mm 3 mps 749 mmHg 45%
22:00 +25°C° 0 mm 2 mps 749 mmHg 46%
23:00 +25°C° 0 mm 2 mps 749 mmHg 46%

Day after tomorrow, 3 August, Tuesday

Time Temperature Precipitation Wind Pressure Humidity
00:00 +24°C° 0 mm 2 mps 748 mmHg 47%
01:00 +24°C° 0.1 mm 2 mps 748 mmHg 50%
02:00 +22°C° 0.1 mm 3 mps 748 mmHg 52%
03:00 +22°C° 0.1 mm 3 mps 748 mmHg 55%
04:00 +24°C° 0 mm 3 mps 748 mmHg 55%
05:00 +24°C° 0 mm 3 mps 748 mmHg 55%
06:00 +25°C° 0 mm 3 mps 748 mmHg 54%
07:00 +27°C° 0 mm 4 mps 748 mmHg 50%
08:00 +28°C° 0 mm 5 mps 747 mmHg 45%
09:00 +30°C° 0 mm 5 mps 747 mmHg 41%
10:00 +33°C° 0 mm 5 mps 747 mmHg 37%
11:00 +35°C° 0 mm 5 mps 747 mmHg 33%
12:00 +37°C° 0 mm 5 mps 747 mmHg 29%
13:00 +37°C° 0 mm 5 mps 747 mmHg 29%
14:00 +37°C° 0 mm 5 mps 746 mmHg 29%
15:00 +37°C° 0 mm 5 mps 746 mmHg 28%
16:00 +35°C° 0 mm 4 mps 746 mmHg 37%
17:00 +33°C° 0 mm 3 mps 746 mmHg 46%
18:00 +29°C° 0 mm 3 mps 746 mmHg 54%
19:00 +28°C° 0.4 mm 3 mps 746 mmHg 53%
20:00 +27°C° 0.4 mm 3 mps 746 mmHg 52%
21:00 +25°C° 0.4 mm 3 mps 746 mmHg 51%
22:00 +24°C° 0 mm 2 mps 747 mmHg 56%
23:00 +23°C° 0 mm 2 mps 747 mmHg 62%

4 August, Wednesday

Time Temperature Precipitation Wind Pressure Humidity
00:00 +21°C° 0 mm 2 mps 747 mmHg 67%
01:00 +20°C° 0.2 mm 2 mps 747 mmHg 71%
02:00 +21°C° 0.2 mm 1 mps 747 mmHg 75%
03:00 +21°C° 0.2 mm 1 mps 747 mmHg 80%
04:00 +21°C° 0 mm 2 mps 748 mmHg 81%
05:00 +21°C° 0 mm 2 mps 748 mmHg 82%
06:00 +21°C° 0 mm 2 mps 748 mmHg 83%
07:00 +22°C° 0 mm 3 mps 748 mmHg 77%
08:00 +24°C° 0 mm 3 mps 748 mmHg 72%
09:00 +25°C° 0 mm 3 mps 748 mmHg 66%
10:00 +26°C° 0 mm 3 mps 748 mmHg 64%
11:00 +26°C° 0 mm 3 mps 748 mmHg 61%
12:00 +27°C° 0 mm 3 mps 748 mmHg 58%
13:00 +27°C° 0.4 mm 3 mps 748 mmHg 57%
14:00 +27°C° 0.4 mm 4 mps 748 mmHg 57%
15:00 +27°C° 0.4 mm 4 mps 749 mmHg 57%
16:00 +27°C° 0.1 mm 4 mps 749 mmHg 57%
17:00 +26°C° 0.1 mm 4 mps 749 mmHg 58%
18:00 +25°C° 0.1 mm 4 mps 749 mmHg 59%
19:00 +24°C° 0 mm 3 mps 749 mmHg 62%
20:00 +22°C° 0 mm 3 mps 749 mmHg 65%
21:00 +21°C° 0 mm 3 mps 749 mmHg 68%
22:00 +20°C° 0 mm 3 mps 750 mmHg 70%
23:00 +19°C° 0 mm 3 mps 750 mmHg 71%

5 August, Thursday

Time Temperature Precipitation Wind Pressure Humidity
00:00 +18°C° 0 mm 3 mps 750 mmHg 73%
01:00 +19°C° 0 mm 3 mps 750 mmHg 71%
02:00 +19°C° 0 mm 3 mps 750 mmHg 70%
03:00 +20°C° 0 mm 3 mps 750 mmHg 68%
04:00 +20°C° 0 mm 3 mps 751 mmHg 67%
05:00 +20°C° 0 mm 3 mps 751 mmHg 66%
06:00 +20°C° 0 mm 3 mps 751 mmHg 64%
07:00 +21°C° 0 mm 4 mps 751 mmHg 62%
08:00 +21°C° 0 mm 4 mps 751 mmHg 60%
09:00 +22°C° 0 mm 4 mps 752 mmHg 58%
10:00 +23°C° 0 mm 4 mps 752 mmHg 52%
11:00 +25°C° 0 mm 4 mps 752 mmHg 45%
12:00 +26°C° 0 mm 5 mps 752 mmHg 39%
13:00 +27°C° 0 mm 5 mps 752 mmHg 38%
14:00 +27°C° 0 mm 5 mps 752 mmHg 36%
15:00 +27°C° 0 mm 5 mps 752 mmHg 34%
16:00 +26°C° 0 mm 5 mps 752 mmHg 36%
17:00 +25°C° 0 mm 5 mps 752 mmHg 38%
18:00 +23°C° 0 mm 5 mps 752 mmHg 41%
19:00 +21°C° 0 mm 5 mps 752 mmHg 46%
20:00 +20°C° 0 mm 4 mps 752 mmHg 52%
21:00 +18°C° 0 mm 4 mps 753 mmHg 57%
22:00 +17°C° 0 mm 4 mps 753 mmHg 57%
23:00 +15°C° 0 mm 4 mps 753 mmHg 58%

6 August, Friday

Time Temperature Precipitation Wind Pressure Humidity
00:00 +14°C° 0 mm 4 mps 753 mmHg 58%
01:00 +14°C° 0 mm 4 mps 753 mmHg 60%
02:00 +13°C° 0 mm 4 mps 753 mmHg 62%
03:00 +13°C° 0 mm 3 mps 753 mmHg 63%
04:00 +13°C° 0 mm 3 mps 753 mmHg 61%
05:00 +14°C° 0 mm 3 mps 754 mmHg 59%
06:00 +16°C° 0 mm 3 mps 754 mmHg 57%
07:00 +17°C° 0 mm 4 mps 754 mmHg 52%
08:00 +19°C° 0 mm 5 mps 754 mmHg 46%
09:00 +21°C° 0 mm 5 mps 754 mmHg 41%
10:00 +22°C° 0 mm 6 mps 754 mmHg 38%
11:00 +22°C° 0 mm 6 mps 754 mmHg 36%
12:00 +23°C° 0 mm 6 mps 754 mmHg 34%
13:00 +23°C° 0 mm 6 mps 754 mmHg 33%
14:00 +23°C° 0 mm 6 mps 754 mmHg 32%
15:00 +24°C° 0 mm 6 mps 754 mmHg 31%
16:00 +23°C° 0 mm 6 mps 754 mmHg 33%
17:00 +22°C° 0 mm 6 mps 754 mmHg 35%
18:00 +21°C° 0 mm 5 mps 755 mmHg 37%
19:00 +19°C° 0 mm 5 mps 755 mmHg 43%
20:00 +17°C° 0 mm 4 mps 755 mmHg 48%
21:00 +14°C° 0 mm 4 mps 755 mmHg 54%
22:00 +13°C° 0 mm 4 mps 755 mmHg 57%
23:00 +13°C° 0 mm 3 mps 756 mmHg 60%
Show more

We Need Your Consent

Meteoprog and our Service Providers may store and access personal data such as cookies, device identifiers or other similar technologies on your device and process such data to personalise content and ads, as well as provide social media features and to analyse the traffic.

  • Store and/or access information on your device

    Cookies, device identifiers or other information can be stored or accessed on your device for the purposes indicated above.

  • Personalised ads and content, ad and content measurement, audience insights, and products development

    Ads and content can be personalised based on a profile. More data can be added to better personalise ads and content. Ad and content performance can be measured. Insights about the audience who saw the ads and content can be derived. Such data can be used to develop or improve user’s experience, systems and software.

By clicking ‘I Agree’ you will allow the use of indicated cookies, device identifiers, web beacons or other similar technologies. Your settings can be changed in the browser on your device.

For certain purposes, legitimate interests may be relied on, rather than consent. You can read more about this in our Privacy and Cookie Policy.